Weather in Minot

United States     48°13′57″N   101°17′44″W
temp.,
°C
wind,
m/s
gust,
m/s
humid.,
%
clouds,
%
prec.,
mm/h
press.,
hPa
HPBL,
m
16 may, sun
sun1601:00+14ssw410585 0.0 1013192
04:00+13sw35620 0.0 101267
07:00+13sw23640 0.0 101253
10:00+21wsw34375 0.0 1013565
13:00+25wsw33215 0.0 10122832
16:00+27wsw34205 0.0 10113398
19:00+26wsw432186 0.0 10103114
22:00+19ssw5124586 0.0 1012265
17 may, mon
mon1701:00+18ssw7155349 0.0 1013416
04:00+15sw614675 0.0 1013329
07:00+14ssw4107491 0.0 1013233
10:00+20s7951100 0.0 1014711
13:00+24s810395 0.0 10121672
16:00+26s910351 0.0 10102184
19:00+25s810372 0.0 10092159
22:00+20s714510 0.0 1011710
18 may, tue
tue1801:00+17s715620 0.0 1011670
04:00+16s716720 0.0 1010608
07:00+15s715760 0.0 1010518
10:00+20s911580 0.0 1009882
13:00+24s89430 0.0 10071839
16:00+27s89331 0.0 10052631
19:00+23s911466 0.0 10051007
22:00+19s816624 0.0 1005668
19 may, wed
wed1901:00+19s716690 0.0 1005607
04:00+17ssw4107755 0.1 1005347
07:00+16sw38835 0.1 1007340
10:00+21nnw7757100 0.0 1008911
13:00+23n6639100 0.0 10081297
16:00+24n5530100 0.1 10081653
19:00+23n6734100 0.1 10071641
22:00+18nne61139100 0.0 1009570
20 may, thu
thu2001:00+16ne5942100 0.0 1009484
04:00+14ne5789100 0.2 1010521
07:00+11nne61089100 2.3 1011535
10:00+10nne6981100 0.1 1013626
13:00+8nne7881100 0.3 1014584
16:00+7nne6883100 0.8 1016557
19:00+6nne7982100 0.8 1018522
22:00+5nne6108191 0.0 1020513